Preview of NWS' New Version of Forecast
This preview is not operational and should not be used for support decisions.

Regional Weather Roundup (RWR)

Issued by Gray - Portland, ME (GYX)

                            
309 
ASUS41 KGYX 210905
RWRGYX
WEATHER ROUNDUP FOR MAINE AND NEW HAMPSHIRE
NATIONAL WEATHER SERVICE GRAY ME
400 AM EST WED FEB 21 2018

MEZ002-005-006-010-012-015-018-020-021-024-026-027-029-211000-
MAINE
  
CITY           SKY/WX    TMP DP  RH WIND       PRES   REMARKS
PORTLAND       FOG       36  36 100 SW5       30.23F VSB 1/4          
BAR HARBOR     FOG       37  37 100 CALM      30.22F VSB 1/4          
WISCASSET      FOG       35  35 100 CALM      30.23S VSB 1/4          
ROCKLAND       FOG       37  37 100 CALM      30.21F VSB 1/4          
FRYEBURG       FOG       33  33 100 CALM      30.20F VSB 1/2          
LEWISTONAUBURN LGT RAIN  35  35 100 S5        30.20F VSB 1/4          
AUGUSTA        FOG       36  36 100 CALM      30.19F VSB 1/4          
WATERVILLE     FOG       35  35 100 CALM      30.14F VSB 1/4          
BANGOR         FOG       36  36 100 SW3       30.21F VSB 1/4          
GREENVILLE       N/A     33  33 100 SE9       30.11F                  
MILLINOCKET    FOG       36  36 100 SE3       30.18F VSB 1/4          
HOULTON        CLOUDY    32  31  96 S6        30.16F FOG              
PRESQUE ISLE   CLOUDY    30  29  96 S15       30.13F WCI  19          
FRENCHVILLE    FRZ RAIN  28  28 100 SE14      30.07F VSB 3/4 WCI  17  
CARIBOU        CLOUDY    31  28  89 S15       30.11F FOG              
$$

NHZ002-005-008-009-011-012-014-211000-
NEW HAMPSHIRE
  
CITY           SKY/WX    TMP DP  RH WIND       PRES   REMARKS
PORTSMOUTH     FOG       36  36  99 CALM      30.21F VSB 3/8          
ROCHESTER      FOG       34  34 100 CALM      30.22F VSB 1/2          
NASHUA         FAIR      36  36 100 CALM      30.22F                  
MANCHESTER     FAIR      37  35  92 N3        30.21S                  
CONCORD        FOG       36  34  92 CALM      30.22F VSB 1/4          
LACONIA        FOG       34  33  96 E3        30.21F VSB 1/2          
PLYMOUTH       FAIR      32  31  98 CALM      30.22F                  
BERLIN         FOG       34  34 100 CALM      30.13F VSB 1/4          
WHITEFIELD     FAIR      35  35 100 CALM      30.14F                  
JAFFREY        FOG       36 N/A N/A CALM      30.23F VSB 1/4          
KEENE          CLOUDY    32  31  96 CALM      30.24F                  
LEBANON        FAIR      37  35  92 NE5       30.19F FOG              
MT WASHINGTON  PTCLDY    45  43  93 W59G66      N/A                   
$$

VTZ005-007-008-211000-
VERMONT
  
CITY           SKY/WX    TMP DP  RH WIND       PRES   REMARKS
ST JOHNSBURY     N/A     37  37 100 MISG      30.13F                  
MONTPELIER     FAIR      50  48  93 VRB3      30.17F                  
BURLINGTON     FAIR      60  51  72 S17G28    30.08F                  
$$

MAZ007-012-024-CTZ003-RIZ002-NYZ038-NYZ072-211000-
SOUTHERN NEW ENGLAND AND NY
  
CITY           SKY/WX    TMP DP  RH WIND       PRES   REMARKS
BOSTON         FAIR      50  49  96 SW9       30.24F                  
WORCESTER      FAIR      50 N/A N/A SW12      30.25F FOG              
NANTUCKET      FOG       45  45 100 SW12      30.33F VSB 1/4          
PROVIDENCE     CLOUDY    57  56  96 SW10      30.29S                  
HARTFORD       FOG       49  49 100 S6        30.27S VSB 1/4          
ALBANY         FAIR      57  51  80 S10       30.19F                  
NEW YORK CITY  FOG       50  48  93 S8        30.30S VSB<1/4          
$$

ANZ081-ANZ082-ANZ150-NHZ014-MEZ023>029-211000-
COASTAL MARINE OBSERVATIONS
  
STATION/POSITION TIME  TEMP    WIND        PRES    WAVE
                       AIR SEA DIR/SP/G            HT/PER
                 (UTC) (F)     (DEG/KT/KT) (MB)    (FT/S)
MOUNT DESERT ROC 0900   43     190/ 10/ 11 1023.3F
MATINICUS ROCK   0800   42     230/  8/  9 1022.7F
ISLE OF SHOALS   0800   38      CALM  /  1 1023.9F
JEFFREYS LEDGE   0806      42                N/A     3/12
GEORGES BANK BUO 0750   47 61              1026.2    9/14
$$

.............KEY..............
   WCI - WIND CHILL
   TC  - TEMPERATURE IN CELSIUS
   VSB - VISIBILITY IN MILES
   HX  - HEAT INDEX
   FAIR- INDICATES FEW OR NO CLOUDS BELOW 12,000 FT, WITH NO 
         SIGNIFICANT WEATHER AND/OR OBSTRUCTIONS TO VISIBILITY.